Year,Month,Day,Hour,Minute,Value (Times are PST for temperature in C)
2015,07,03,00,00,14.70
2015,07,03,00,01,14.60
2015,07,03,00,02,14.60
2015,07,03,00,03,14.60
2015,07,03,00,04,14.60
2015,07,03,00,05,14.60
2015,07,03,00,06,14.60
2015,07,03,00,07,14.60
2015,07,03,00,08,14.70
2015,07,03,00,09,14.70
2015,07,03,00,10,14.80
2015,07,03,00,11,14.80
2015,07,03,00,12,14.90
2015,07,03,00,13,14.90
2015,07,03,00,14,15.00
2015,07,03,00,15,15.10
2015,07,03,00,16,15.20
2015,07,03,00,17,15.30
2015,07,03,00,18,15.30
2015,07,03,00,19,15.30
2015,07,03,00,20,15.30
2015,07,03,00,21,15.30
2015,07,03,00,22,15.30
2015,07,03,00,23,15.40
2015,07,03,00,24,15.40
2015,07,03,00,25,15.40
2015,07,03,00,26,15.30
2015,07,03,00,27,15.30
2015,07,03,00,28,15.30
2015,07,03,00,29,15.30
2015,07,03,00,30,15.30
2015,07,03,00,31,15.20
2015,07,03,00,32,15.20
2015,07,03,00,33,15.20
2015,07,03,00,34,15.20
2015,07,03,00,35,15.20
2015,07,03,00,36,15.30
2015,07,03,00,37,15.30
2015,07,03,00,38,15.30
2015,07,03,00,39,15.30
2015,07,03,00,40,15.30
2015,07,03,00,41,15.30
2015,07,03,00,42,15.30
2015,07,03,00,43,15.30
2015,07,03,00,44,15.30
2015,07,03,00,45,15.30
2015,07,03,00,46,15.20
2015,07,03,00,47,15.20
2015,07,03,00,48,15.20
2015,07,03,00,49,15.20
2015,07,03,00,50,15.20
2015,07,03,00,51,15.20
2015,07,03,00,52,15.10
2015,07,03,00,53,15.10
2015,07,03,00,54,15.00
2015,07,03,00,55,15.00
2015,07,03,00,56,14.90
2015,07,03,00,57,14.80
2015,07,03,00,58,14.80
2015,07,03,00,59,14.70
2015,07,03,01,00,14.70
2015,07,03,01,01,14.60
2015,07,03,01,02,14.50
2015,07,03,01,03,14.50
2015,07,03,01,04,14.40
2015,07,03,01,05,14.30
2015,07,03,01,06,14.30
2015,07,03,01,07,14.30
2015,07,03,01,08,14.20
2015,07,03,01,09,14.20
2015,07,03,01,10,14.20
2015,07,03,01,11,14.20
2015,07,03,01,12,14.10
2015,07,03,01,13,14.10
2015,07,03,01,14,14.10
2015,07,03,01,15,14.10
2015,07,03,01,16,14.10
2015,07,03,01,17,14.10
2015,07,03,01,18,14.10
2015,07,03,01,19,14.00
2015,07,03,01,20,14.00
2015,07,03,01,21,14.00
2015,07,03,01,22,14.00
2015,07,03,01,23,14.00
2015,07,03,01,24,14.00
2015,07,03,01,25,14.00
2015,07,03,01,26,14.00
2015,07,03,01,27,14.00
2015,07,03,01,28,14.10
2015,07,03,01,29,14.10
2015,07,03,01,30,14.10
2015,07,03,01,31,14.10
2015,07,03,01,32,14.10
2015,07,03,01,33,14.20
2015,07,03,01,34,14.20
2015,07,03,01,35,14.20
2015,07,03,01,36,14.20
2015,07,03,01,37,14.20
2015,07,03,01,38,14.20
2015,07,03,01,39,14.30
2015,07,03,01,40,14.30
2015,07,03,01,41,14.30
2015,07,03,01,42,14.30
2015,07,03,01,43,14.30
2015,07,03,01,44,14.30
2015,07,03,01,45,14.30
2015,07,03,01,46,14.30
2015,07,03,01,47,14.30
2015,07,03,01,48,14.30
2015,07,03,01,49,14.40
2015,07,03,01,50,14.40
2015,07,03,01,51,14.40
2015,07,03,01,52,14.50
2015,07,03,01,53,14.50
2015,07,03,01,54,14.60
2015,07,03,01,55,14.60
2015,07,03,01,56,14.60
2015,07,03,01,57,14.60
2015,07,03,01,58,14.60
2015,07,03,01,59,14.60
2015,07,03,02,00,14.60
2015,07,03,02,01,14.60
2015,07,03,02,02,14.60
2015,07,03,02,03,14.50
2015,07,03,02,04,14.50
2015,07,03,02,05,14.50
2015,07,03,02,06,14.50
2015,07,03,02,07,14.50
2015,07,03,02,08,14.50
2015,07,03,02,09,14.40
2015,07,03,02,10,14.40
2015,07,03,02,11,14.40
2015,07,03,02,12,14.40
2015,07,03,02,13,14.40
2015,07,03,02,14,14.40
2015,07,03,02,15,14.40
2015,07,03,02,16,14.50
2015,07,03,02,17,14.50
2015,07,03,02,18,14.60
2015,07,03,02,19,14.60
2015,07,03,02,20,14.70
2015,07,03,02,21,14.80
2015,07,03,02,22,14.80
2015,07,03,02,23,14.90
2015,07,03,02,24,14.90
2015,07,03,02,25,14.90
2015,07,03,02,26,14.90
2015,07,03,02,27,14.90
2015,07,03,02,28,14.80
2015,07,03,02,29,14.80
2015,07,03,02,30,14.80
2015,07,03,02,31,14.70
2015,07,03,02,32,14.70
2015,07,03,02,33,14.70
2015,07,03,02,34,14.60
2015,07,03,02,35,14.60
2015,07,03,02,36,14.60
2015,07,03,02,37,14.60
2015,07,03,02,38,14.60
2015,07,03,02,39,14.70
2015,07,03,02,40,14.70
2015,07,03,02,41,14.80
2015,07,03,02,42,14.80
2015,07,03,02,43,14.80
2015,07,03,02,44,14.80
2015,07,03,02,45,14.80
2015,07,03,02,46,14.80
2015,07,03,02,47,14.70
2015,07,03,02,48,14.70
2015,07,03,02,49,14.70
2015,07,03,02,50,14.60
2015,07,03,02,51,14.60
2015,07,03,02,52,14.60
2015,07,03,02,53,14.50
2015,07,03,02,54,14.50
2015,07,03,02,55,14.40
2015,07,03,02,56,14.40
2015,07,03,02,57,14.30
2015,07,03,02,58,14.20
2015,07,03,02,59,14.20
2015,07,03,03,00,14.20
2015,07,03,03,01,14.10
2015,07,03,03,02,14.10
2015,07,03,03,03,14.10
2015,07,03,03,04,14.00
2015,07,03,03,05,13.90
2015,07,03,03,06,13.90
2015,07,03,03,07,13.90
2015,07,03,03,08,13.80
2015,07,03,03,09,13.80
2015,07,03,03,10,13.70
2015,07,03,03,11,13.70
2015,07,03,03,12,13.60
2015,07,03,03,13,13.60
2015,07,03,03,14,13.60
2015,07,03,03,15,13.50
2015,07,03,03,16,13.50
2015,07,03,03,17,13.50
2015,07,03,03,18,13.40
2015,07,03,03,19,13.40
2015,07,03,03,20,13.40
2015,07,03,03,21,13.40
2015,07,03,03,22,13.40
2015,07,03,03,23,13.40
2015,07,03,03,24,13.40
2015,07,03,03,25,13.40
2015,07,03,03,26,13.40
2015,07,03,03,27,13.30
2015,07,03,03,28,13.30
2015,07,03,03,29,13.30
2015,07,03,03,30,13.30
2015,07,03,03,31,13.30
2015,07,03,03,32,13.30
2015,07,03,03,33,13.30
2015,07,03,03,34,13.30
2015,07,03,03,35,13.30
2015,07,03,03,36,13.30
2015,07,03,03,37,13.30
2015,07,03,03,38,13.30
2015,07,03,03,39,13.30
2015,07,03,03,40,13.30
2015,07,03,03,41,13.30
2015,07,03,03,42,13.30
2015,07,03,03,43,13.30
2015,07,03,03,44,13.30
2015,07,03,03,45,13.30
2015,07,03,03,46,13.30
2015,07,03,03,47,13.30
2015,07,03,03,48,13.30
2015,07,03,03,49,13.30
2015,07,03,03,50,13.30
2015,07,03,03,51,13.30
2015,07,03,03,52,13.30
2015,07,03,03,53,13.30
2015,07,03,03,54,13.30
2015,07,03,03,55,13.30
2015,07,03,03,56,13.30
2015,07,03,03,57,13.30
2015,07,03,03,58,13.30
2015,07,03,03,59,13.30
2015,07,03,04,00,13.30
2015,07,03,04,01,13.30
2015,07,03,04,02,13.30
2015,07,03,04,03,13.30
2015,07,03,04,04,13.30
2015,07,03,04,05,13.30
2015,07,03,04,06,13.30
2015,07,03,04,07,13.30
2015,07,03,04,08,13.30
2015,07,03,04,09,13.30
2015,07,03,04,10,13.30
2015,07,03,04,11,13.30
2015,07,03,04,12,13.20
2015,07,03,04,13,13.20
2015,07,03,04,14,13.20
2015,07,03,04,15,13.20
2015,07,03,04,16,13.20
2015,07,03,04,17,13.20
2015,07,03,04,18,13.20
2015,07,03,04,19,13.20
2015,07,03,04,20,13.20
2015,07,03,04,21,13.20
2015,07,03,04,22,13.20
2015,07,03,04,23,13.20
2015,07,03,04,24,13.20
2015,07,03,04,25,13.20
2015,07,03,04,26,13.20
2015,07,03,04,27,13.20
2015,07,03,04,28,13.20
2015,07,03,04,29,13.20
2015,07,03,04,30,13.20
2015,07,03,04,31,13.20
2015,07,03,04,32,13.20
2015,07,03,04,33,13.20
2015,07,03,04,34,13.20
2015,07,03,04,35,13.20
2015,07,03,04,36,13.20
2015,07,03,04,37,13.20
2015,07,03,04,38,13.20
2015,07,03,04,39,13.20
2015,07,03,04,40,13.30
2015,07,03,04,41,13.30
2015,07,03,04,42,13.30
2015,07,03,04,43,13.40
2015,07,03,04,44,13.50
2015,07,03,04,45,13.50
2015,07,03,04,46,13.60
2015,07,03,04,47,13.70
2015,07,03,04,48,13.70
2015,07,03,04,49,13.80
2015,07,03,04,50,13.80
2015,07,03,04,51,13.80
2015,07,03,04,52,13.80
2015,07,03,04,53,13.80
2015,07,03,04,54,13.80
2015,07,03,04,55,13.80
2015,07,03,04,56,13.80
2015,07,03,04,57,13.80
2015,07,03,04,58,13.90
2015,07,03,04,59,13.90
2015,07,03,05,00,13.90
2015,07,03,05,01,13.90
2015,07,03,05,02,13.90
2015,07,03,05,03,13.90
2015,07,03,05,04,13.90
2015,07,03,05,05,13.90
2015,07,03,05,06,13.90
2015,07,03,05,07,13.90
2015,07,03,05,08,13.80
2015,07,03,05,09,13.80
2015,07,03,05,10,13.80
2015,07,03,05,11,13.80
2015,07,03,05,12,13.80
2015,07,03,05,13,13.90
2015,07,03,05,14,13.90
2015,07,03,05,15,13.90
2015,07,03,05,16,13.90
2015,07,03,05,17,14.00
2015,07,03,05,18,14.00
2015,07,03,05,19,14.00
2015,07,03,05,20,14.00
2015,07,03,05,21,14.00
2015,07,03,05,22,14.00
2015,07,03,05,23,14.00
2015,07,03,05,24,14.00
2015,07,03,05,25,14.10
2015,07,03,05,26,14.10
2015,07,03,05,27,14.10
2015,07,03,05,28,14.10
2015,07,03,05,29,14.10
2015,07,03,05,30,14.10
2015,07,03,05,31,14.10
2015,07,03,05,32,14.20
2015,07,03,05,33,14.20
2015,07,03,05,34,14.20
2015,07,03,05,35,14.20
2015,07,03,05,36,14.20
2015,07,03,05,37,14.20
2015,07,03,05,38,14.20
2015,07,03,05,39,14.20
2015,07,03,05,40,14.20
2015,07,03,05,41,14.20
2015,07,03,05,42,14.20
2015,07,03,05,43,14.10
2015,07,03,05,44,14.10
2015,07,03,05,45,14.20
2015,07,03,05,46,14.10
2015,07,03,05,47,14.20
2015,07,03,05,48,14.20
2015,07,03,05,49,14.20
2015,07,03,05,50,14.20
2015,07,03,05,51,14.20
2015,07,03,05,52,14.20
2015,07,03,05,53,14.20
2015,07,03,05,54,14.20
2015,07,03,05,55,14.20
2015,07,03,05,56,14.30
2015,07,03,05,57,14.30
2015,07,03,05,58,14.30
2015,07,03,05,59,14.30
2015,07,03,06,00,14.30
2015,07,03,06,01,14.30
2015,07,03,06,02,14.30
2015,07,03,06,03,14.30
2015,07,03,06,04,14.30
2015,07,03,06,05,14.30
2015,07,03,06,06,14.40
2015,07,03,06,07,14.40
2015,07,03,06,08,14.40
2015,07,03,06,09,14.40
2015,07,03,06,10,14.40
2015,07,03,06,11,14.50
2015,07,03,06,12,14.50
2015,07,03,06,13,14.60
2015,07,03,06,14,14.60
2015,07,03,06,15,14.70
2015,07,03,06,16,14.80
2015,07,03,06,17,14.90
2015,07,03,06,18,15.00
2015,07,03,06,19,15.10
2015,07,03,06,20,15.10
2015,07,03,06,21,15.10
2015,07,03,06,22,15.20
2015,07,03,06,23,15.20
2015,07,03,06,24,15.30
2015,07,03,06,25,15.30
2015,07,03,06,26,15.30
2015,07,03,06,27,15.30
2015,07,03,06,28,15.30
2015,07,03,06,29,15.30
2015,07,03,06,30,15.30
2015,07,03,06,31,15.30
2015,07,03,06,32,15.30
2015,07,03,06,33,15.20
2015,07,03,06,34,15.20
2015,07,03,06,35,15.20
2015,07,03,06,36,15.20
2015,07,03,06,37,15.20
2015,07,03,06,38,15.20
2015,07,03,06,39,15.10
2015,07,03,06,40,15.10
2015,07,03,06,41,15.00
2015,07,03,06,42,15.00
2015,07,03,06,43,15.00
2015,07,03,06,44,14.90
2015,07,03,06,45,14.90
2015,07,03,06,46,14.90
2015,07,03,06,47,14.90
2015,07,03,06,48,14.90
2015,07,03,06,49,14.90
2015,07,03,06,50,14.90
2015,07,03,06,51,15.00
2015,07,03,06,52,15.00
2015,07,03,06,53,15.00
2015,07,03,06,54,15.10
2015,07,03,06,55,15.10
2015,07,03,06,56,15.10
2015,07,03,06,57,15.30
2015,07,03,06,58,15.40
2015,07,03,06,59,15.50
2015,07,03,07,00,15.70
2015,07,03,07,01,15.80
2015,07,03,07,02,15.90
2015,07,03,07,03,16.00
2015,07,03,07,04,16.10
2015,07,03,07,05,16.10
2015,07,03,07,06,16.20
2015,07,03,07,07,16.20
2015,07,03,07,08,16.20
2015,07,03,07,09,16.20
2015,07,03,07,10,16.30
2015,07,03,07,11,16.30
2015,07,03,07,12,16.30
2015,07,03,07,13,16.30
2015,07,03,07,14,16.40
2015,07,03,07,15,16.40
2015,07,03,07,16,16.40
2015,07,03,07,17,16.40
2015,07,03,07,18,16.50
2015,07,03,07,19,16.50
2015,07,03,07,20,16.60
2015,07,03,07,21,16.60
2015,07,03,07,22,16.60
2015,07,03,07,23,16.70
2015,07,03,07,24,16.70
2015,07,03,07,25,16.80
2015,07,03,07,26,16.80
2015,07,03,07,27,16.90
2015,07,03,07,28,16.90
2015,07,03,07,29,16.90
2015,07,03,07,30,16.90
2015,07,03,07,31,16.80
2015,07,03,07,32,16.70
2015,07,03,07,33,16.50
2015,07,03,07,34,16.20
2015,07,03,07,35,16.00
2015,07,03,07,36,15.80
2015,07,03,07,37,15.70
2015,07,03,07,38,15.60
2015,07,03,07,39,15.50
2015,07,03,07,40,15.40
2015,07,03,07,41,15.20
2015,07,03,07,42,15.10
2015,07,03,07,43,15.00
2015,07,03,07,44,14.90
2015,07,03,07,45,14.90
2015,07,03,07,46,14.90
2015,07,03,07,47,14.90
2015,07,03,07,48,14.90
2015,07,03,07,49,14.90
2015,07,03,07,50,14.90
2015,07,03,07,51,15.00
2015,07,03,07,52,15.00
2015,07,03,07,53,15.10
2015,07,03,07,54,15.20
2015,07,03,07,55,15.20
2015,07,03,07,56,15.20
2015,07,03,07,57,15.40
2015,07,03,07,58,15.40
2015,07,03,07,59,15.50
2015,07,03,08,00,15.50
2015,07,03,08,01,15.60
2015,07,03,08,02,15.70
2015,07,03,08,03,15.70
2015,07,03,08,04,15.80
2015,07,03,08,05,15.80
2015,07,03,08,06,15.90
2015,07,03,08,07,16.00
2015,07,03,08,08,16.10
2015,07,03,08,09,16.20
2015,07,03,08,10,16.30
2015,07,03,08,11,16.30
2015,07,03,08,12,16.50
2015,07,03,08,13,16.50
2015,07,03,08,14,16.60
2015,07,03,08,15,16.70
2015,07,03,08,16,16.80
2015,07,03,08,17,16.90
2015,07,03,08,18,16.90
2015,07,03,08,19,17.00
2015,07,03,08,20,17.10
2015,07,03,08,21,17.10
2015,07,03,08,22,17.20
2015,07,03,08,23,17.30
2015,07,03,08,24,17.30
2015,07,03,08,25,17.40
2015,07,03,08,26,17.50
2015,07,03,08,27,17.60
2015,07,03,08,28,17.60
2015,07,03,08,29,17.70
2015,07,03,08,30,17.80
2015,07,03,08,31,17.90
2015,07,03,08,32,18.00
2015,07,03,08,33,18.10
2015,07,03,08,34,18.20
2015,07,03,08,35,18.30
2015,07,03,08,36,18.40
2015,07,03,08,37,18.50
2015,07,03,08,38,18.60
2015,07,03,08,39,18.70
2015,07,03,08,40,18.80
2015,07,03,08,41,18.90
2015,07,03,08,42,19.00
2015,07,03,08,43,19.00
2015,07,03,08,44,19.10
2015,07,03,08,45,19.20
2015,07,03,08,46,19.30
2015,07,03,08,47,19.40
2015,07,03,08,48,19.50
2015,07,03,08,49,19.70
2015,07,03,08,50,19.80
2015,07,03,08,51,20.10
2015,07,03,08,52,20.30
2015,07,03,08,53,20.50
2015,07,03,08,54,20.70
2015,07,03,08,55,20.80
2015,07,03,08,56,20.90
2015,07,03,08,57,20.90
2015,07,03,08,58,20.90
2015,07,03,08,59,21.00
2015,07,03,09,00,21.00
2015,07,03,09,01,21.10
2015,07,03,09,02,21.20
2015,07,03,09,03,21.30
2015,07,03,09,04,21.30
2015,07,03,09,05,21.40
2015,07,03,09,06,21.30
2015,07,03,09,07,21.20
2015,07,03,09,08,21.10
2015,07,03,09,09,20.90
2015,07,03,09,10,20.70
2015,07,03,09,11,20.60
2015,07,03,09,12,20.50
2015,07,03,09,13,20.50
2015,07,03,09,14,20.50
2015,07,03,09,15,20.50
2015,07,03,09,16,20.50
2015,07,03,09,17,20.50
2015,07,03,09,18,20.40
2015,07,03,09,19,20.40
2015,07,03,09,20,20.20
2015,07,03,09,21,20.20
2015,07,03,09,22,20.20
2015,07,03,09,23,20.10
2015,07,03,09,24,20.10
2015,07,03,09,25,20.00
2015,07,03,09,26,20.00
2015,07,03,09,27,19.90
2015,07,03,09,28,19.90
2015,07,03,09,29,19.90
2015,07,03,09,30,20.00
2015,07,03,09,31,20.00
2015,07,03,09,32,19.90
2015,07,03,09,33,20.00
2015,07,03,09,34,20.00
2015,07,03,09,35,20.10
2015,07,03,09,36,20.20
2015,07,03,09,37,20.30
2015,07,03,09,38,20.30
2015,07,03,09,39,20.50
2015,07,03,09,40,20.60
2015,07,03,09,41,20.70
2015,07,03,09,42,20.80
2015,07,03,09,43,20.80
2015,07,03,09,44,20.80
2015,07,03,09,45,20.80
2015,07,03,09,46,20.80
2015,07,03,09,47,20.90
2015,07,03,09,48,20.80
2015,07,03,09,49,20.80
2015,07,03,09,50,20.70
2015,07,03,09,51,20.60
2015,07,03,09,52,20.60
2015,07,03,09,53,20.50
2015,07,03,09,54,20.40
2015,07,03,09,55,20.40
2015,07,03,09,56,20.40
2015,07,03,09,57,20.50
2015,07,03,09,58,20.60
2015,07,03,09,59,20.60
2015,07,03,10,00,20.50
2015,07,03,10,01,20.30
2015,07,03,10,02,20.10
2015,07,03,10,03,20.00
2015,07,03,10,04,20.00
2015,07,03,10,05,20.00
2015,07,03,10,06,20.10
2015,07,03,10,07,20.10
2015,07,03,10,08,20.00
2015,07,03,10,09,19.90
2015,07,03,10,10,19.80
2015,07,03,10,11,19.70
2015,07,03,10,12,19.70
2015,07,03,10,13,19.70
2015,07,03,10,14,19.60
2015,07,03,10,15,19.60
2015,07,03,10,16,19.60
2015,07,03,10,17,19.70
2015,07,03,10,18,19.70
2015,07,03,10,19,19.80
2015,07,03,10,20,19.90
2015,07,03,10,21,19.90
2015,07,03,10,22,20.00
2015,07,03,10,23,20.00
2015,07,03,10,24,20.00
2015,07,03,10,25,19.90
2015,07,03,10,26,19.80
2015,07,03,10,27,19.60
2015,07,03,10,28,19.50
2015,07,03,10,29,19.40
2015,07,03,10,30,19.20
2015,07,03,10,31,19.20
2015,07,03,10,32,19.10
2015,07,03,10,33,19.10
2015,07,03,10,34,19.10
2015,07,03,10,35,19.00
2015,07,03,10,36,19.10
2015,07,03,10,37,19.10
2015,07,03,10,38,19.20
2015,07,03,10,39,19.20
2015,07,03,10,40,19.30
2015,07,03,10,41,19.40
2015,07,03,10,42,19.60
2015,07,03,10,43,19.70
2015,07,03,10,44,19.80
2015,07,03,10,45,19.90
2015,07,03,10,46,19.90
2015,07,03,10,47,19.90
2015,07,03,10,48,19.80
2015,07,03,10,49,19.70
2015,07,03,10,50,19.80
2015,07,03,10,51,19.90
2015,07,03,10,52,20.00
2015,07,03,10,53,20.10
2015,07,03,10,54,20.20
2015,07,03,10,55,20.20
2015,07,03,10,56,20.30
2015,07,03,10,57,20.30
2015,07,03,10,58,20.20
2015,07,03,10,59,20.20
2015,07,03,11,00,20.30
2015,07,03,11,01,20.40
2015,07,03,11,02,20.40
2015,07,03,11,03,20.40
2015,07,03,11,04,20.60
2015,07,03,11,05,20.70
2015,07,03,11,06,20.80
2015,07,03,11,07,21.00
2015,07,03,11,08,21.00
2015,07,03,11,09,21.00
2015,07,03,11,10,21.10
2015,07,03,11,11,21.20
2015,07,03,11,12,21.20
2015,07,03,11,13,21.20
2015,07,03,11,14,21.10
2015,07,03,11,15,20.90
2015,07,03,11,16,20.80
2015,07,03,11,17,20.80
2015,07,03,11,18,20.70
2015,07,03,11,19,20.80
2015,07,03,11,20,20.90
2015,07,03,11,21,21.00
2015,07,03,11,22,20.90
2015,07,03,11,23,20.90
2015,07,03,11,24,20.90
2015,07,03,11,25,20.90
2015,07,03,11,26,20.90
2015,07,03,11,27,20.90
2015,07,03,11,28,20.80
2015,07,03,11,29,20.70
2015,07,03,11,30,20.70
2015,07,03,11,31,20.60
2015,07,03,11,32,20.60
2015,07,03,11,33,20.50
2015,07,03,11,34,20.50
2015,07,03,11,35,20.60
2015,07,03,11,36,20.60
2015,07,03,11,37,20.70
2015,07,03,11,38,20.80
2015,07,03,11,39,21.00
2015,07,03,11,40,21.10
2015,07,03,11,41,21.30
2015,07,03,11,42,21.50
2015,07,03,11,43,21.60
2015,07,03,11,44,21.70
2015,07,03,11,45,21.70
2015,07,03,11,46,21.60
2015,07,03,11,47,21.40
2015,07,03,11,48,21.20
2015,07,03,11,49,21.00
2015,07,03,11,50,21.00
2015,07,03,11,51,20.90
2015,07,03,11,52,21.00
2015,07,03,11,53,21.10
2015,07,03,11,54,21.10
2015,07,03,11,55,21.10
2015,07,03,11,56,21.10
2015,07,03,11,57,21.00
2015,07,03,11,58,20.90
2015,07,03,11,59,20.90
2015,07,03,12,00,20.80
2015,07,03,12,01,20.80
2015,07,03,12,02,20.90
2015,07,03,12,03,20.90
2015,07,03,12,04,20.80
2015,07,03,12,05,20.90
2015,07,03,12,06,21.10
2015,07,03,12,07,21.30
2015,07,03,12,08,21.50
2015,07,03,12,09,21.50
2015,07,03,12,10,21.40
2015,07,03,12,11,21.50
2015,07,03,12,12,21.60
2015,07,03,12,13,21.60
2015,07,03,12,14,21.50
2015,07,03,12,15,21.50
2015,07,03,12,16,21.60
2015,07,03,12,17,21.50
2015,07,03,12,18,21.30
2015,07,03,12,19,21.20
2015,07,03,12,20,21.10
2015,07,03,12,21,21.10
2015,07,03,12,22,21.10
2015,07,03,12,23,21.10
2015,07,03,12,24,21.10
2015,07,03,12,25,21.10
2015,07,03,12,26,21.20
2015,07,03,12,27,21.20
2015,07,03,12,28,21.10
2015,07,03,12,29,21.00
2015,07,03,12,30,21.00
2015,07,03,12,31,20.90
2015,07,03,12,32,21.00
2015,07,03,12,33,21.10
2015,07,03,12,34,21.00
2015,07,03,12,35,20.90
2015,07,03,12,36,20.80
2015,07,03,12,37,20.80
2015,07,03,12,38,20.80
2015,07,03,12,39,20.90
2015,07,03,12,40,21.00
2015,07,03,12,41,21.10
2015,07,03,12,42,21.30
2015,07,03,12,43,21.40
2015,07,03,12,44,21.60
2015,07,03,12,45,21.70
2015,07,03,12,46,21.80
2015,07,03,12,47,21.80
2015,07,03,12,48,21.70
2015,07,03,12,49,21.60
2015,07,03,12,50,21.50
2015,07,03,12,51,21.60
2015,07,03,12,52,21.60
2015,07,03,12,53,21.70
2015,07,03,12,54,21.80
2015,07,03,12,55,21.90
2015,07,03,12,56,21.90
2015,07,03,12,57,21.80
2015,07,03,12,58,21.70
2015,07,03,12,59,21.70
2015,07,03,13,00,21.70
2015,07,03,13,01,21.80
2015,07,03,13,02,21.80
2015,07,03,13,03,21.60
2015,07,03,13,04,21.50
2015,07,03,13,05,21.60
2015,07,03,13,06,21.60
2015,07,03,13,07,21.80
2015,07,03,13,08,22.00
2015,07,03,13,09,22.20
2015,07,03,13,10,22.40
2015,07,03,13,11,22.60
2015,07,03,13,12,22.70
2015,07,03,13,13,22.70
2015,07,03,13,14,22.60
2015,07,03,13,15,22.60
2015,07,03,13,16,22.60
2015,07,03,13,17,22.50
2015,07,03,13,18,22.40
2015,07,03,13,19,22.40
2015,07,03,13,20,22.40
2015,07,03,13,21,22.40
2015,07,03,13,22,22.20
2015,07,03,13,23,21.90
2015,07,03,13,24,21.70
2015,07,03,13,25,21.70
2015,07,03,13,26,21.90
2015,07,03,13,27,22.00
2015,07,03,13,28,22.10
2015,07,03,13,29,22.00
2015,07,03,13,30,22.10
2015,07,03,13,31,22.10
2015,07,03,13,32,22.10
2015,07,03,13,33,22.20
2015,07,03,13,34,22.30
2015,07,03,13,35,22.30
2015,07,03,13,36,22.20
2015,07,03,13,37,22.10
2015,07,03,13,38,22.00
2015,07,03,13,39,22.00
2015,07,03,13,40,22.00
2015,07,03,13,41,22.00
2015,07,03,13,42,22.00
2015,07,03,13,43,22.00
2015,07,03,13,44,22.10
2015,07,03,13,45,22.10
2015,07,03,13,46,22.10
2015,07,03,13,47,22.10
2015,07,03,13,48,22.20
2015,07,03,13,49,22.30
2015,07,03,13,50,22.30
2015,07,03,13,51,22.30
2015,07,03,13,52,22.20
2015,07,03,13,53,22.20
2015,07,03,13,54,22.30
2015,07,03,13,55,22.20
2015,07,03,13,56,22.30
2015,07,03,13,57,22.40
2015,07,03,13,58,22.60
2015,07,03,13,59,22.60
2015,07,03,14,00,22.70
2015,07,03,14,01,22.70
2015,07,03,14,02,22.80
2015,07,03,14,03,22.90
2015,07,03,14,04,22.90
2015,07,03,14,05,22.90
2015,07,03,14,06,22.80
2015,07,03,14,07,22.50
2015,07,03,14,08,22.30
2015,07,03,14,09,22.20
2015,07,03,14,10,22.20
2015,07,03,14,11,22.20
2015,07,03,14,12,22.20
2015,07,03,14,13,22.20
2015,07,03,14,14,22.20
2015,07,03,14,15,22.30
2015,07,03,14,16,22.30
2015,07,03,14,17,22.50
2015,07,03,14,18,22.50
2015,07,03,14,19,22.50
2015,07,03,14,20,22.50
2015,07,03,14,21,22.50
2015,07,03,14,22,22.50
2015,07,03,14,23,22.40
2015,07,03,14,24,22.50
2015,07,03,14,25,22.60
2015,07,03,14,26,22.70
2015,07,03,14,27,22.60
2015,07,03,14,28,22.60
2015,07,03,14,29,22.60
2015,07,03,14,30,22.50
2015,07,03,14,31,22.30
2015,07,03,14,32,22.30
2015,07,03,14,33,22.30
2015,07,03,14,34,22.30
2015,07,03,14,35,22.40
2015,07,03,14,36,22.30
2015,07,03,14,37,22.30
2015,07,03,14,38,22.20
2015,07,03,14,39,22.20
2015,07,03,14,40,22.20
2015,07,03,14,41,22.20
2015,07,03,14,42,22.20
2015,07,03,14,43,22.30
2015,07,03,14,44,22.50
2015,07,03,14,45,22.60
2015,07,03,14,46,22.60
2015,07,03,14,47,22.60
2015,07,03,14,48,22.60
2015,07,03,14,49,22.60
2015,07,03,14,50,22.60
2015,07,03,14,51,22.60
2015,07,03,14,52,22.60
2015,07,03,14,53,22.60
2015,07,03,14,54,22.60
2015,07,03,14,55,22.50
2015,07,03,14,56,22.40
2015,07,03,14,57,22.40
2015,07,03,14,58,22.40
2015,07,03,14,59,22.40
2015,07,03,15,00,22.40
2015,07,03,15,01,22.40
2015,07,03,15,02,22.50
2015,07,03,15,03,22.80
2015,07,03,15,04,23.00
2015,07,03,15,05,23.10
2015,07,03,15,06,23.00
2015,07,03,15,07,22.90
2015,07,03,15,08,22.90
2015,07,03,15,09,23.00
2015,07,03,15,10,23.00
2015,07,03,15,11,23.10
2015,07,03,15,12,23.10
2015,07,03,15,13,23.20
2015,07,03,15,14,23.20
2015,07,03,15,15,23.30
2015,07,03,15,16,23.30
2015,07,03,15,17,23.40
2015,07,03,15,18,23.50
2015,07,03,15,19,23.60
2015,07,03,15,20,23.70
2015,07,03,15,21,23.80
2015,07,03,15,22,23.70
2015,07,03,15,23,23.50
2015,07,03,15,24,23.20
2015,07,03,15,25,23.00
2015,07,03,15,26,22.80
2015,07,03,15,27,22.70
2015,07,03,15,28,22.60
2015,07,03,15,29,22.60
2015,07,03,15,30,22.60
2015,07,03,15,31,22.70
2015,07,03,15,32,22.80
2015,07,03,15,33,22.90
2015,07,03,15,34,22.90
2015,07,03,15,35,23.00
2015,07,03,15,36,22.90
2015,07,03,15,37,22.80
2015,07,03,15,38,22.90
2015,07,03,15,39,23.00
2015,07,03,15,40,23.10
2015,07,03,15,41,23.10
2015,07,03,15,42,23.10
2015,07,03,15,43,23.00
2015,07,03,15,44,23.00
2015,07,03,15,45,22.90
2015,07,03,15,46,22.90
2015,07,03,15,47,22.90
2015,07,03,15,48,22.90
2015,07,03,15,49,23.00
2015,07,03,15,50,22.90
2015,07,03,15,51,22.90
2015,07,03,15,52,22.90
2015,07,03,15,53,22.90
2015,07,03,15,54,23.00
2015,07,03,15,55,23.20
2015,07,03,15,56,23.40
2015,07,03,15,57,23.60
2015,07,03,15,58,23.80
2015,07,03,15,59,23.90
2015,07,03,16,00,23.90
2015,07,03,16,01,23.90
2015,07,03,16,02,23.80
2015,07,03,16,03,23.70
2015,07,03,16,04,23.70
2015,07,03,16,05,23.60
2015,07,03,16,06,23.60
2015,07,03,16,07,23.60
2015,07,03,16,08,23.50
2015,07,03,16,09,23.60
2015,07,03,16,10,23.60
2015,07,03,16,11,23.40
2015,07,03,16,12,23.30
2015,07,03,16,13,23.20
2015,07,03,16,14,23.10
2015,07,03,16,15,22.90
2015,07,03,16,16,22.80
2015,07,03,16,17,22.80
2015,07,03,16,18,22.80
2015,07,03,16,19,22.70
2015,07,03,16,20,22.70
2015,07,03,16,21,22.80
2015,07,03,16,22,22.90
2015,07,03,16,23,22.90
2015,07,03,16,24,22.90
2015,07,03,16,25,23.00
2015,07,03,16,26,23.20
2015,07,03,16,27,23.20
2015,07,03,16,28,23.10
2015,07,03,16,29,23.10
2015,07,03,16,30,23.20
2015,07,03,16,31,23.20
2015,07,03,16,32,23.30
2015,07,03,16,33,23.30
2015,07,03,16,34,23.30
2015,07,03,16,35,23.20
2015,07,03,16,36,23.10
2015,07,03,16,37,23.00
2015,07,03,16,38,23.00
2015,07,03,16,39,23.00
2015,07,03,16,40,23.00
2015,07,03,16,41,23.10
2015,07,03,16,42,23.10
2015,07,03,16,43,23.10
2015,07,03,16,44,23.20
2015,07,03,16,45,23.30
2015,07,03,16,46,23.30
2015,07,03,16,47,23.30
2015,07,03,16,48,23.30
2015,07,03,16,49,23.30
2015,07,03,16,50,23.40
2015,07,03,16,51,23.60
2015,07,03,16,52,23.70
2015,07,03,16,53,23.60
2015,07,03,16,54,23.60
2015,07,03,16,55,23.60
2015,07,03,16,56,23.50
2015,07,03,16,57,23.40
2015,07,03,16,58,23.40
2015,07,03,16,59,23.20
2015,07,03,17,00,23.10
2015,07,03,17,01,23.10
2015,07,03,17,02,23.10
2015,07,03,17,03,23.10
2015,07,03,17,04,22.90
2015,07,03,17,05,22.70
2015,07,03,17,06,22.60
2015,07,03,17,07,22.50
2015,07,03,17,08,22.50
2015,07,03,17,09,22.40
2015,07,03,17,10,22.50
2015,07,03,17,11,22.60
2015,07,03,17,12,22.60
2015,07,03,17,13,22.60
2015,07,03,17,14,22.60
2015,07,03,17,15,22.70
2015,07,03,17,16,22.70
2015,07,03,17,17,22.60
2015,07,03,17,18,22.50
2015,07,03,17,19,22.40